When you browse on this site, cookies collect data to enhance your experience and personalize the content and advertising you see.
Visit our Privacy Policy to learn more. By continuing to use the site, you agree to this use of cookies and data.
  • In Österreich
  • Länderverzeichnis
  • Für 7 Tage
  • Wassertemperatur
  • Wetterkarte
  • News
  • Widgets
  • user-avatar
    Anmelden

    Stündliche Wetter Kormuzh

    Heute, 18 September, Mittwoch

    Zeit Temperatur Niederschläge Wind Luftdruck Luftfeuchtigkeit
    00:00 +7°C° 1 mm 4 m/S 738 mmHg 88%
    01:00 +7°C° 1 mm 4 m/S 738 mmHg 90%
    02:00 +6°C° 0 mm 4 m/S 737 mmHg 93%
    03:00 +6°C° 1.8 mm 4 m/S 737 mmHg 92%
    04:00 +6°C° 1.8 mm 5 m/S 737 mmHg 92%
    05:00 +5°C° 1.8 mm 5 m/S 737 mmHg 91%
    06:00 +5°C° 0.3 mm 5 m/S 738 mmHg 90%
    07:00 +4°C° 0.3 mm 6 m/S 738 mmHg 90%
    08:00 +4°C° 0.3 mm 6 m/S 738 mmHg 89%
    09:00 +5°C° 0.1 mm 6 m/S 739 mmHg 86%
    10:00 +7°C° 0.1 mm 6 m/S 739 mmHg 83%
    11:00 +8°C° 0.1 mm 5 m/S 740 mmHg 80%
    12:00 +8°C° 0.1 mm 6 m/S 740 mmHg 78%
    13:00 +8°C° 0.1 mm 6 m/S 741 mmHg 76%
    14:00 +8°C° 0.1 mm 6 m/S 741 mmHg 75%
    15:00 +9°C° 0.1 mm 6 m/S 742 mmHg 73%
    16:00 +9°C° 0.1 mm 5 m/S 742 mmHg 72%
    17:00 +10°C° 0.1 mm 5 m/S 743 mmHg 71%
    18:00 +9°C° 0 mm 5 m/S 744 mmHg 76%
    19:00 +8°C° 0 mm 5 m/S 744 mmHg 80%
    20:00 +7°C° 0 mm 4 m/S 745 mmHg 85%
    21:00 +7°C° 0.1 mm 5 m/S 745 mmHg 85%
    22:00 +7°C° 0.1 mm 5 m/S 745 mmHg 86%
    23:00 +7°C° 0.1 mm 5 m/S 746 mmHg 86%

    Morgen, 19 September, Donnerstag

    Zeit Temperatur Niederschläge Wind Luftdruck Luftfeuchtigkeit
    00:00 +7°C° 0 mm 5 m/S 746 mmHg 88%
    01:00 +7°C° 0 mm 4 m/S 746 mmHg 90%
    02:00 +6°C° 0 mm 4 m/S 747 mmHg 92%
    03:00 +6°C° 0 mm 4 m/S 747 mmHg 91%
    04:00 +7°C° 0 mm 5 m/S 747 mmHg 90%
    05:00 +7°C° 0 mm 5 m/S 747 mmHg 89%
    06:00 +7°C° 0 mm 5 m/S 748 mmHg 88%
    07:00 +7°C° 0 mm 5 m/S 748 mmHg 86%
    08:00 +7°C° 0 mm 5 m/S 748 mmHg 85%
    09:00 +7°C° 0 mm 4 m/S 749 mmHg 83%
    10:00 +8°C° 0 mm 4 m/S 749 mmHg 82%
    11:00 +8°C° 0 mm 4 m/S 750 mmHg 80%
    12:00 +10°C° 0 mm 4 m/S 750 mmHg 76%
    13:00 +10°C° 0 mm 4 m/S 750 mmHg 72%
    14:00 +11°C° 0 mm 4 m/S 750 mmHg 68%
    15:00 +11°C° 0 mm 3 m/S 750 mmHg 67%
    16:00 +11°C° 0 mm 3 m/S 750 mmHg 67%
    17:00 +13°C° 0 mm 2 m/S 750 mmHg 67%
    18:00 +10°C° 0.1 mm 2 m/S 750 mmHg 74%
    19:00 +9°C° 0.1 mm 2 m/S 750 mmHg 81%
    20:00 +8°C° 0.1 mm 2 m/S 750 mmHg 88%
    21:00 +7°C° 0 mm 2 m/S 750 mmHg 89%
    22:00 +7°C° 0 mm 3 m/S 750 mmHg 90%
    23:00 +7°C° 0 mm 3 m/S 750 mmHg 91%

    übermorgen, 20 September, Freitag

    Zeit Temperatur Niederschläge Wind Luftdruck Luftfeuchtigkeit
    00:00 +7°C° 0 mm 3 m/S 750 mmHg 92%
    01:00 +5°C° 0 mm 3 m/S 750 mmHg 93%
    02:00 +5°C° 0 mm 3 m/S 750 mmHg 95%
    03:00 +5°C° 0.1 mm 4 m/S 750 mmHg 93%
    04:00 +5°C° 0.1 mm 4 m/S 750 mmHg 92%
    05:00 +6°C° 0.1 mm 4 m/S 750 mmHg 90%
    06:00 +6°C° 0 mm 4 m/S 750 mmHg 89%
    07:00 +5°C° 0 mm 5 m/S 751 mmHg 88%
    08:00 +5°C° 0 mm 5 m/S 751 mmHg 87%
    09:00 +6°C° 0 mm 5 m/S 751 mmHg 80%
    10:00 +7°C° 0 mm 6 m/S 752 mmHg 72%
    11:00 +8°C° 0 mm 6 m/S 752 mmHg 65%
    12:00 +9°C° 0.2 mm 6 m/S 752 mmHg 61%
    13:00 +9°C° 0.2 mm 6 m/S 752 mmHg 58%
    14:00 +10°C° 0.2 mm 6 m/S 752 mmHg 54%
    15:00 +10°C° 0.1 mm 5 m/S 752 mmHg 57%
    16:00 +9°C° 0.1 mm 5 m/S 752 mmHg 59%
    17:00 +10°C° 0.1 mm 4 m/S 752 mmHg 62%
    18:00 +7°C° 0 mm 4 m/S 753 mmHg 67%
    19:00 +7°C° 0 mm 3 m/S 753 mmHg 73%
    20:00 +4°C° 0 mm 3 m/S 753 mmHg 78%
    21:00 +5°C° 0 mm 2 m/S 754 mmHg 80%
    22:00 +4°C° 0 mm 2 m/S 754 mmHg 82%
    23:00 +4°C° 0 mm 2 m/S 754 mmHg 85%

    21 September, Samstag

    Zeit Temperatur Niederschläge Wind Luftdruck Luftfeuchtigkeit
    00:00 +4°C° 0 mm 2 m/S 754 mmHg 85%
    01:00 +3°C° 0 mm 2 m/S 754 mmHg 86%
    02:00 +3°C° 0 mm 2 m/S 754 mmHg 87%
    03:00 +3°C° 0 mm 2 m/S 754 mmHg 86%
    04:00 +3°C° 0 mm 2 m/S 754 mmHg 86%
    05:00 +3°C° 0 mm 2 m/S 754 mmHg 85%
    06:00 +4°C° 0 mm 2 m/S 754 mmHg 80%
    07:00 +5°C° 0 mm 2 m/S 754 mmHg 76%
    08:00 +7°C° 0 mm 2 m/S 754 mmHg 71%
    09:00 +7°C° 0 mm 3 m/S 754 mmHg 71%
    10:00 +7°C° 0 mm 4 m/S 754 mmHg 70%
    11:00 +8°C° 0 mm 4 m/S 754 mmHg 70%
    12:00 +8°C° 0.1 mm 4 m/S 753 mmHg 75%
    13:00 +8°C° 0.1 mm 4 m/S 753 mmHg 80%
    14:00 +10°C° 0.1 mm 4 m/S 752 mmHg 85%
    15:00 +11°C° 0 mm 4 m/S 752 mmHg 82%
    16:00 +12°C° 0 mm 4 m/S 752 mmHg 79%
    17:00 +14°C° 0 mm 4 m/S 752 mmHg 77%
    18:00 +14°C° 0 mm 4 m/S 752 mmHg 78%
    19:00 +13°C° 0 mm 4 m/S 752 mmHg 78%
    20:00 +13°C° 0 mm 4 m/S 752 mmHg 79%
    21:00 +13°C° 0 mm 4 m/S 751 mmHg 82%
    22:00 +12°C° 0 mm 4 m/S 751 mmHg 85%
    23:00 +11°C° 0 mm 4 m/S 751 mmHg 88%

    22 September, Sonntag

    Zeit Temperatur Niederschläge Wind Luftdruck Luftfeuchtigkeit
    00:00 +11°C° 0 mm 4 m/S 751 mmHg 89%
    01:00 +10°C° 0 mm 4 m/S 751 mmHg 90%
    02:00 +9°C° 0 mm 5 m/S 751 mmHg 91%
    03:00 +10°C° 0 mm 4 m/S 751 mmHg 92%
    04:00 +10°C° 0 mm 4 m/S 751 mmHg 92%
    05:00 +10°C° 0 mm 4 m/S 751 mmHg 93%
    06:00 +10°C° 0 mm 4 m/S 751 mmHg 90%
    07:00 +11°C° 0 mm 4 m/S 751 mmHg 88%
    08:00 +11°C° 0 mm 4 m/S 751 mmHg 86%
    09:00 +12°C° 0 mm 4 m/S 751 mmHg 82%
    10:00 +13°C° 0 mm 4 m/S 751 mmHg 78%
    11:00 +14°C° 0 mm 3 m/S 751 mmHg 74%
    12:00 +16°C° 0 mm 3 m/S 751 mmHg 69%
    13:00 +18°C° 0 mm 3 m/S 751 mmHg 64%
    14:00 +19°C° 0 mm 2 m/S 750 mmHg 60%
    15:00 +18°C° 0 mm 2 m/S 750 mmHg 63%
    16:00 +18°C° 0 mm 2 m/S 750 mmHg 66%
    17:00 +18°C° 0 mm 1 m/S 750 mmHg 69%
    18:00 +16°C° 0 mm 1 m/S 750 mmHg 73%
    19:00 +14°C° 0 mm 2 m/S 750 mmHg 77%
    20:00 +13°C° 0 mm 2 m/S 750 mmHg 80%
    21:00 +12°C° 0 mm 2 m/S 750 mmHg 76%
    22:00 +11°C° 0 mm 3 m/S 751 mmHg 72%
    23:00 +10°C° 0 mm 3 m/S 751 mmHg 68%

    23 September, Montag

    Zeit Temperatur Niederschläge Wind Luftdruck Luftfeuchtigkeit
    00:00 +10°C° 0 mm 3 m/S 751 mmHg 65%
    01:00 +10°C° 0 mm 3 m/S 751 mmHg 62%
    02:00 +10°C° 0 mm 3 m/S 751 mmHg 59%
    03:00 +9°C° 0 mm 3 m/S 750 mmHg 60%
    04:00 +9°C° 0 mm 3 m/S 750 mmHg 61%
    05:00 +8°C° 0 mm 3 m/S 750 mmHg 62%
    06:00 +8°C° 0 mm 4 m/S 749 mmHg 61%
    07:00 +8°C° 0 mm 4 m/S 749 mmHg 59%
    08:00 +8°C° 0 mm 4 m/S 749 mmHg 58%
    09:00 +11°C° 0 mm 4 m/S 749 mmHg 57%
    10:00 +12°C° 0 mm 4 m/S 749 mmHg 56%
    11:00 +13°C° 0 mm 4 m/S 749 mmHg 55%
    12:00 +14°C° 0 mm 4 m/S 748 mmHg 55%
    13:00 +14°C° 0 mm 4 m/S 748 mmHg 54%
    14:00 +15°C° 0 mm 4 m/S 747 mmHg 54%
    15:00 +14°C° 0 mm 4 m/S 747 mmHg 56%
    16:00 +14°C° 0 mm 4 m/S 747 mmHg 58%
    17:00 +13°C° 0 mm 3 m/S 746 mmHg 60%
    18:00 +12°C° 0 mm 3 m/S 747 mmHg 63%
    19:00 +10°C° 0 mm 3 m/S 747 mmHg 65%
    20:00 +9°C° 0 mm 3 m/S 747 mmHg 67%
    21:00 +8°C° 0 mm 3 m/S 747 mmHg 67%
    22:00 +8°C° 0 mm 3 m/S 747 mmHg 66%
    23:00 +7°C° 0 mm 3 m/S 747 mmHg 66%
    Mehr zeigen